Flag for U.S.A. Weather past 2 weeks in Helena, Montana, U.S.A.

Now
46 °F

Clear.


Feels Like: 40 °F
Forecast: 33 / 68 °F
Wind: 15 mph from West

Location: Helena Regional Airport


UV Index: 3 (Moderate)

Visibility: 10 mi


Pressure: 29.96 "Hg

Humidity: 25%

Dew point: 12 °F

Location of HelenaLocation

Historic Weather in Helena

°F

Helena temperature yesterday

Maximum temperature yesterday: 63 °F (at 5:53 PM)
Minimum temperature yesterday: 37 °F (at 6:53 AM)
Average temperature yesterday: 50 °F

Past Weeks' High & Low Weather Summary

 TemperatureHumidityPressure
High72 °F (Apr 8, 3:53 PM)93% (Apr 12, 10:01 AM)30.48 "Hg (Apr 12, 10:01 AM)
Low20 °F (Apr 14, 6:53 AM)11% (Apr 14, 4:53 PM)29.65 "Hg (Apr 18, 12:53 AM)
Average46 °F45%30.01 "Hg
* Reported Apr 3 8:53 PM — Apr 18 8:53 PM, Helena, Weather by CustomWeather, © 2014

Note: Actual official high and low records may vary slightly from our data, if they occured in-between our weather recording intervals... More about our weather records

Advertising

Historic Weather Conditions — Data for Previous 24 hours

 ConditionsComfort  
Time TempWeatherWind HumidityBarometerVisibility
8:53 PM
Apr 18
46 °FSunny.3 mph24%29.96 "Hg10 mi
7:53 PM48 °FSunny.8 mph22%29.91 "Hg10 mi
6:53 PM50 °FSunny.24 mph20%29.89 "Hg10 mi
5:53 PM51 °FSunny.22 mph19%29.87 "Hg10 mi
4:53 PM46 °FBroken clouds.23 mph33%29.89 "Hg8 mi
3:53 PM46 °FPartly sunny.23 mph33%29.88 "Hg5 mi
2:53 PM49 °FScattered clouds.25 mph32%29.85 "Hg10 mi
1:53 PM46 °FPartly sunny.23 mph54%29.85 "Hg10 mi
12:53 PM44 °FMostly cloudy.28 mph53%29.82 "Hg10 mi
11:53 AM52 °FPartly sunny.18 mph45%29.75 "Hg10 mi
10:53 AM51 °FPartly sunny.14 mph52%29.75 "Hg10 mi
9:53 AM49 °FBroken clouds.16 mph57%29.75 "Hg10 mi
8:53 AM48 °FSunny.5 mph66%29.75 "Hg10 mi
7:53 AM46 °FMore clouds than sun.No wind71%29.76 "Hg10 mi
6:53 AM46 °FMostly cloudy.8 mph71%29.74 "Hg10 mi
5:53 AM47 °FMostly cloudy.7 mph71%29.73 "Hg10 mi
4:53 AM47 °FOvercast.5 mph74%29.73 "Hg10 mi
3:53 AM46 °FOvercast.9 mph73%29.73 "Hg10 mi
2:53 AM48 °FOvercast.14 mph71%29.71 "Hg10 mi
1:53 AM51 °FMostly cloudy.13 mph56%29.68 "Hg10 mi
12:53 AM51 °FOvercast.9 mph54%29.65 "Hg10 mi
11:53 PM
Apr 17
52 °FOvercast.7 mph57%29.66 "Hg10 mi
10:53 PM55 °FOvercast.3 mph45%29.69 "Hg10 mi
Weather by CustomWeather, © 2014

See weather overview